Jefferson, NC

4:54 PM EDT on September 29, 2016 (GMT -0400)
Ashe County

Weather History for KGEV - January, 2003

Change the Weather History Date:

Sunday, January 5, 2003

  Actual Average Record
Temperature  
Mean Temperature 34 °F -  
Max Temperature 39 °F 43 °F 64 °F (2005)
Min Temperature 28 °F 23 °F -1 °F (1981)
Degree Days  
Heating Degree Days 32    
Moisture  
Dew Point 29 °F    
Average Humidity 82    
Maximum Humidity 100    
Minimum Humidity 69    
Precipitation  
Precipitation 0.02 in - - ()
Sea Level Pressure  
Sea Level Pressure 29.93 in    
Wind  
Wind Speed 4 mph (SW)    
Max Wind Speed 18 mph    
Max Gust Speed 28 mph    
Visibility 10 miles    
Events Snow    
Averages and records for this station are not official NWS values.
T = Trace of Precipitation, MM = Missing Value Source: NWS Daily Summary

Daily Weather History Graph

Daily Weather History Graph

Search for Another Location

Airport or City:

Trip Planner

Search our weather history database for the weather conditions in past years. The results will help you decide how hot, cold, wet, or windy it might be!

Date:

Astronomy

Jan. 05, 2003 Rise Set
Actual Time 7:37 AM EST 5:24 PM EST
Civil Twilight 7:09 AM EST 5:52 PM EST
Nautical Twilight 6:37 AM EST 6:24 PM EST
Astronomical Twilight 6:06 AM EST 6:56 PM EST
Moon 10:02 AM EST (1/5) 8:24 PM EST (1/5)
Length of Visible Light 10h 43m
Length of Day
9h 46m
Waxing Crescent, 9% of the Moon is Illuminated
Jan 5
Waxing Crescent
Jan 10
First Quarter
Jan 18
Full
Jan 25
Last Quarter
Feb 1
New

Hourly Weather History & Observations

Time (EST) Temp. Windchill Dew Point Humidity Pressure Visibility Wind Dir Wind Speed Gust Speed Precip Events Conditions
12:01 AM 28.4 °F - 21.2 °F 74% 29.98 in 10.0 mi Calm Calm - N/A   Mostly Cloudy
12:19 AM 28.4 °F - 21.2 °F 74% 29.97 in 10.0 mi Calm Calm - N/A   Mostly Cloudy
12:39 AM 30.2 °F - 23.0 °F 75% 29.97 in 10.0 mi Calm Calm - N/A   Overcast
12:59 AM 30.2 °F - 21.2 °F 69% 29.97 in 10.0 mi Calm Calm - N/A   Overcast
1:21 AM 30.2 °F 26.7 °F 23.0 °F 75% 29.97 in 10.0 mi South 3.5 mph - N/A   Overcast
1:39 AM 30.2 °F - 21.2 °F 69% 29.97 in 10.0 mi Calm Calm - N/A   Overcast
1:59 AM 30.2 °F 26.7 °F 21.2 °F 69% 29.97 in 10.0 mi South 3.5 mph - N/A   Overcast
2:19 AM 30.2 °F 25.4 °F 23.0 °F 75% 29.96 in 10.0 mi South 4.6 mph - N/A   Overcast
2:39 AM 30.2 °F 26.7 °F 21.2 °F 69% 29.96 in 10.0 mi SSE 3.5 mph - N/A   Overcast
2:59 AM 30.2 °F - 23.0 °F 75% 29.96 in 10.0 mi Calm Calm - N/A   Overcast
3:19 AM 30.2 °F 26.7 °F 23.0 °F 75% 29.96 in 10.0 mi South 3.5 mph - N/A   Overcast
3:39 AM 30.2 °F 26.7 °F 23.0 °F 75% 29.95 in 10.0 mi SSE 3.5 mph - N/A   Overcast
3:59 AM 30.2 °F - 24.8 °F 80% 29.94 in 10.0 mi Calm Calm - N/A   Overcast
4:19 AM 30.2 °F 25.4 °F 24.8 °F 80% 29.94 in 10.0 mi SSE 4.6 mph - N/A   Overcast
4:41 AM 32.0 °F 28.7 °F 24.8 °F 75% 29.93 in 10.0 mi SSE 3.5 mph - N/A   Mostly Cloudy
4:59 AM 32.0 °F - 24.8 °F 75% 29.93 in 10.0 mi Calm Calm - N/A   Mostly Cloudy
5:19 AM 32.0 °F - 24.8 °F 75% 29.93 in 10.0 mi Calm Calm - N/A   Overcast
5:39 AM 32.0 °F - 24.8 °F 75% 29.93 in 10.0 mi Calm Calm - N/A   Overcast
5:59 AM 32.0 °F - 24.8 °F 75% 29.93 in 10.0 mi Calm Calm - N/A   Overcast
6:19 AM 32.0 °F 27.5 °F 24.8 °F 75% 29.92 in 10.0 mi SE 4.6 mph - N/A   Overcast
6:41 AM 32.0 °F 27.5 °F 24.8 °F 75% 29.93 in 10.0 mi SSE 4.6 mph - N/A   Overcast
6:59 AM 32.0 °F 28.7 °F 24.8 °F 75% 29.92 in 10.0 mi SE 3.5 mph - N/A   Overcast
7:19 AM 32.0 °F - 26.6 °F 80% 29.91 in 10.0 mi Calm Calm - N/A Snow Light Snow
7:39 AM 32.0 °F - 24.8 °F 75% 29.91 in 10.0 mi Calm Calm - N/A   Mostly Cloudy
7:59 AM 32.0 °F 28.7 °F 24.8 °F 75% 29.91 in 10.0 mi SSE 3.5 mph - N/A   Overcast
8:19 AM 32.0 °F - 24.8 °F 75% 29.90 in 10.0 mi Calm Calm - N/A   Overcast
8:39 AM 32.0 °F 28.7 °F 24.8 °F 75% 29.91 in 10.0 mi South 3.5 mph - N/A   Overcast
8:59 AM 32.0 °F 27.5 °F 26.6 °F 80% 29.92 in 10.0 mi SSE 4.6 mph - N/A   Overcast
9:19 AM 32.0 °F 28.7 °F 26.6 °F 80% 29.91 in 10.0 mi SE 3.5 mph - N/A   Mostly Cloudy
9:39 AM 32.0 °F - 26.6 °F 80% 29.91 in 10.0 mi Calm Calm - N/A   Overcast
9:59 AM 32.0 °F - 26.6 °F 80% 29.92 in 7.0 mi Calm Calm - N/A Snow Light Snow
10:19 AM 32.0 °F 26.4 °F 24.8 °F 75% - 10.0 mi WNW 5.8 mph - N/A   Overcast
10:39 AM 32.0 °F 27.5 °F 28.4 °F 87% 29.93 in 2.0 mi SE 4.6 mph - N/A Snow Light Snow
11:01 AM 30.2 °F - 30.2 °F 100% 29.94 in 1.5 mi Calm Calm - 0.01 in Snow Light Snow
11:19 AM 32.0 °F - 32.0 °F 100% 29.92 in 3.0 mi Calm Calm - 0.02 in Snow Light Snow
11:39 AM 35.6 °F - 33.8 °F 93% 29.91 in 5.0 mi Calm Calm - 0.02 in   Mostly Cloudy
12:01 PM 35.6 °F - 33.8 °F 93% 29.90 in 10.0 mi Calm Calm - N/A   Overcast
12:19 PM 37.4 °F 31.4 °F 35.6 °F 93% 29.89 in 10.0 mi West 8.1 mph - N/A   Overcast
12:39 PM 39.2 °F 33.0 °F 35.6 °F 87% 29.88 in 10.0 mi West 9.2 mph 17.3 mph N/A   Overcast
12:59 PM 37.4 °F 28.9 °F 35.6 °F 93% 29.89 in 10.0 mi West 13.8 mph 24.2 mph N/A   Overcast
1:22 PM 37.4 °F 28.9 °F 35.6 °F 93% 29.88 in 10.0 mi West 13.8 mph 20.7 mph N/A   Overcast
1:39 PM 39.2 °F 29.8 °F 35.6 °F 87% 29.88 in 10.0 mi West 18.4 mph 25.3 mph N/A   Overcast
1:59 PM 39.2 °F 32.0 °F 37.4 °F 93% 29.88 in 10.0 mi West 11.5 mph 19.6 mph N/A   Overcast
2:19 PM 39.2 °F 33.0 °F 37.4 °F 93% 29.89 in 10.0 mi West 9.2 mph 17.3 mph N/A   Overcast
2:41 PM 39.2 °F 32.0 °F 37.4 °F 93% 29.89 in 10.0 mi West 11.5 mph 17.3 mph N/A   Mostly Cloudy
2:59 PM 39.2 °F 32.5 °F 35.6 °F 87% 29.90 in 10.0 mi West 10.4 mph 18.4 mph N/A   Overcast
3:21 PM 39.2 °F 31.2 °F 35.6 °F 87% 29.91 in 10.0 mi West 13.8 mph 20.7 mph N/A   Overcast
3:41 PM 39.2 °F 32.5 °F 35.6 °F 87% 29.92 in 10.0 mi West 10.4 mph 18.4 mph N/A   Overcast
3:59 PM 39.2 °F 32.0 °F 35.6 °F 87% 29.92 in 10.0 mi West 11.5 mph 20.7 mph N/A   Overcast
4:21 PM 39.2 °F 32.0 °F 35.6 °F 87% 29.93 in 10.0 mi West 11.5 mph 20.7 mph N/A   Overcast
4:39 PM 39.2 °F 31.2 °F 35.6 °F 87% 29.93 in 10.0 mi West 13.8 mph 19.6 mph N/A   Overcast
4:59 PM 39.2 °F 31.2 °F 35.6 °F 87% 29.93 in 10.0 mi West 13.8 mph 23.0 mph N/A   Mostly Cloudy
5:19 PM 39.2 °F 31.6 °F 35.6 °F 87% 29.93 in 10.0 mi West 12.7 mph 27.6 mph N/A   Mostly Cloudy
5:39 PM 39.2 °F 32.0 °F 35.6 °F 87% 29.93 in 10.0 mi West 11.5 mph 19.6 mph N/A   Scattered Clouds
5:59 PM 39.2 °F 31.2 °F 35.6 °F 87% 29.94 in 10.0 mi WNW 13.8 mph 20.7 mph N/A   Clear
6:19 PM 37.4 °F 30.3 °F 35.6 °F 93% 29.95 in 10.0 mi West 10.4 mph - N/A   Scattered Clouds
6:41 PM 37.4 °F 31.4 °F 35.6 °F 93% 29.96 in 10.0 mi West 8.1 mph 18.4 mph N/A   Mostly Cloudy
6:59 PM 37.4 °F 32.1 °F 35.6 °F 93% 29.97 in 10.0 mi West 6.9 mph - N/A   Overcast
7:19 PM 37.4 °F 32.8 °F 35.6 °F 93% 29.96 in 10.0 mi WSW 5.8 mph - N/A   Overcast
7:39 PM 37.4 °F 32.1 °F 35.6 °F 93% 29.97 in 10.0 mi West 6.9 mph - N/A   Overcast
7:59 PM 37.4 °F 32.8 °F 33.8 °F 87% 29.97 in 10.0 mi WSW 5.8 mph - N/A   Overcast
8:19 PM 37.4 °F 29.8 °F 33.8 °F 87% 29.97 in 10.0 mi West 11.5 mph - N/A   Overcast
8:39 PM 37.4 °F 32.8 °F 33.8 °F 87% 29.97 in 10.0 mi West 5.8 mph - N/A   Overcast
8:59 PM 37.4 °F 34.9 °F 35.6 °F 93% 29.98 in 10.0 mi West 3.5 mph - N/A   Overcast
9:19 PM 39.2 °F 30.5 °F 33.8 °F 81% 29.97 in 10.0 mi WNW 16.1 mph 21.9 mph N/A   Overcast
9:39 PM 39.2 °F 32.0 °F 33.8 °F 81% 29.97 in 10.0 mi West 11.5 mph 17.3 mph N/A   Overcast
9:59 PM 39.2 °F 31.6 °F 33.8 °F 81% 29.97 in 10.0 mi WNW 12.7 mph 20.7 mph N/A   Mostly Cloudy
10:19 PM 39.2 °F 34.2 °F 32.0 °F 75% 29.96 in 10.0 mi West 6.9 mph - N/A   Mostly Cloudy
10:39 PM 39.2 °F 35.0 °F 32.0 °F 75% 29.96 in 10.0 mi West 5.8 mph - N/A   Mostly Cloudy
10:59 PM 39.2 °F 35.0 °F 33.8 °F 81% 29.96 in 10.0 mi West 5.8 mph - N/A   Overcast
11:21 PM 39.2 °F 33.6 °F 33.8 °F 81% 29.95 in 10.0 mi West 8.1 mph - N/A   Overcast
11:39 PM 39.2 °F 31.2 °F 33.8 °F 81% 29.95 in 10.0 mi West 13.8 mph 18.4 mph N/A   Overcast
11:59 PM 39.2 °F 30.2 °F 35.6 °F 87% 29.94 in 10.0 mi WNW 17.3 mph 20.7 mph N/A   Overcast